TimeCDT,TemperatureF,Dew PointF,Humidity,Sea Level PressureIn,VisibilityMPH,Wind Direction,Wind SpeedMPH,Gust SpeedMPH,PrecipitationIn,Events,Conditions,WindDirDegrees,DateUTC
12:53 AM,61.0,55.9,83,29.99,10.0,WNW,3.5,-,N/A,,Mostly Cloudy,290,2012-11-01 05:53:00
2:53 AM,54.0,52.0,93,30.01,7.0,Calm,Calm,-,N/A,,Clear,0,2012-11-01 07:53:00
3:53 AM,53.1,51.1,93,30.01,8.0,Calm,Calm,-,N/A,,Clear,0,2012-11-01 08:53:00
4:07 AM,51.8,51.8,100,30.02,1.8,Calm,Calm,-,N/A,,Clear,0,2012-11-01 09:07:00
4:14 AM,51.8,50.0,94,30.02,2.0,Calm,Calm,-,N/A,,Clear,0,2012-11-01 09:14:00
4:23 AM,51.8,50.0,94,30.02,3.0,Calm,Calm,-,N/A,,Clear,0,2012-11-01 09:23:00
4:46 AM,50.0,48.2,94,30.02,1.8,Calm,Calm,-,N/A,,Clear,0,2012-11-01 09:46:00
4:53 AM,51.1,48.9,92,30.01,1.5,Calm,Calm,-,N/A,,Clear,0,2012-11-01 09:53:00
5:10 AM,50.0,48.2,94,30.02,2.0,Calm,Calm,-,N/A,,Clear,0,2012-11-01 10:10:00
5:20 AM,50.0,46.4,87,30.03,7.0,Calm,Calm,-,N/A,,Clear,0,2012-11-01 10:20:00
5:35 AM,48.2,46.4,93,30.03,1.8,Calm,Calm,-,N/A,,Clear,0,2012-11-01 10:35:00
5:44 AM,48.2,46.4,93,30.04,3.0,Calm,Calm,-,N/A,,Clear,0,2012-11-01 10:44:00
5:53 AM,48.9,46.9,93,30.04,5.0,Calm,Calm,-,N/A,,Clear,0,2012-11-01 10:53:00
6:46 AM,46.4,44.6,93,30.05,4.0,Calm,Calm,-,N/A,,Partly Cloudy,0,2012-11-01 11:46:00
6:53 AM,46.0,44.1,93,30.05,5.0,Calm,Calm,-,N/A,,Partly Cloudy,0,2012-11-01 11:53:00
7:53 AM,48.0,46.0,93,30.07,6.0,Calm,Calm,-,N/A,,Clear,0,2012-11-01 12:53:00
8:53 AM,55.9,52.0,87,30.09,7.0,Calm,Calm,-,N/A,,Clear,0,2012-11-01 13:53:00
9:53 AM,63.0,48.9,60,30.09,10.0,Calm,Calm,-,N/A,,Clear,0,2012-11-01 14:53:00
10:53 AM,66.9,48.0,51,30.10,10.0,SSE,3.5,-,N/A,,Clear,150,2012-11-01 15:53:00
11:53 AM,71.1,43.0,36,30.08,10.0,Variable,5.8,-,N/A,,Clear,0,2012-11-01 16:53:00
12:53 PM,73.9,43.0,33,30.05,10.0,Calm,Calm,-,N/A,,Clear,0,2012-11-01 17:53:00
1:53 PM,75.0,44.1,33,30.02,10.0,NW,4.6,-,N/A,,Clear,310,2012-11-01 18:53:00
2:53 PM,77.0,44.1,31,30.01,10.0,ENE,5.8,-,N/A,,Clear,60,2012-11-01 19:53:00
3:53 PM,78.1,45.0,31,29.99,10.0,Variable,3.5,-,N/A,,Clear,0,2012-11-01 20:53:00
4:53 PM,75.9,46.0,35,29.99,10.0,Variable,3.5,-,N/A,,Clear,0,2012-11-01 21:53:00
5:53 PM,70.0,50.0,49,30.01,10.0,Calm,Calm,-,N/A,,Clear,0,2012-11-01 22:53:00
6:53 PM,62.1,53.1,72,30.02,10.0,Calm,Calm,-,N/A,,Clear,0,2012-11-01 23:53:00
7:53 PM,57.9,52.0,81,30.03,10.0,Calm,Calm,-,N/A,,Clear,0,2012-11-02 00:53:00
8:53 PM,57.0,52.0,83,30.04,10.0,Calm,Calm,-,N/A,,Clear,0,2012-11-02 01:53:00
9:53 PM,54.0,51.1,90,30.04,10.0,Calm,Calm,-,N/A,,Clear,0,2012-11-02 02:53:00
10:53 PM,53.1,48.9,86,30.04,10.0,Calm,Calm,-,N/A,,Clear,0,2012-11-02 03:53:00
11:53 PM,51.1,48.9,92,30.04,10.0,Calm,Calm,-,N/A,,Clear,0,2012-11-02 04:53:00